Change the Weather History Date:

Wednesday, November 2, 2011

  Actual Average (KAMA) Record (KAMA)
Temperature  
Mean Temperature 44 °F 52 °F  
Max Temperature 55 °F 66 °F 85 °F (1994)
Min Temperature 32 °F 38 °F 10 °F (1991)
Degree Days  
Heating Degree Days 21 13  
Month to date heating degree days 25  
Since 1 July heating degree days 305  
Cooling Degree Days 0 0  
Month to date cooling degree days 0  
Year to date cooling degree days 1398  
Moisture  
Dew Point 33 °F    
Average Humidity 68    
Maximum Humidity 87    
Minimum Humidity 57    
Precipitation  
Precipitation 0.00 in 0.03 in 0.80 in (2004)
Month to date precipitation 0.07  
Year to date precipitation 18.92  
Snow  
Snow 0.00 in 0.00 in 8.40 in (2004)
Month to date snowfall 0.1  
Since 1 July snowfall 0.3  
Since 1 September snowfall 0.3  
Snow Depth -    
Sea Level Pressure  
Sea Level Pressure 30.16 in    
Wind  
Wind Speed 21 mph (North)    
Max Wind Speed 38 mph    
Max Gust Speed 46 mph    
Visibility 10 miles    
Events      
T = Trace of Precipitation, MM = Missing Value Source: NWS Daily Summary

Daily Weather History Graph

Daily Weather History Graph

Search for Another Location

Airport or City:

Trip Planner

Search our weather history database for the weather conditions in past years. The results will help you decide how hot, cold, wet, or windy it might be!

Date:

Astronomy

Nov. 02, 2011 Rise Set
Actual Time 8:10 AM CDT 6:54 PM CDT
Civil Twilight 7:44 AM CDT 7:20 PM CDT
Nautical Twilight 7:14 AM CDT 7:50 PM CDT
Astronomical Twilight 6:45 AM CDT 8:20 PM CDT
Moon 2:31 PM CDT (11/2) 12:41 AM CDT (11/2)
Length of Visible Light 11h 35m
Length of Day
10h 43m
Waxing Crescent, 50% of the Moon is Illuminated
Nov 2
Waxing Crescent
Nov 10
Full
Nov 18
Last Quarter
Nov 25
New
Dec 2
First Quarter

Hourly Weather History & Observations

Time (CDT) Temp. Windchill Dew Point Humidity Pressure Visibility Wind Dir Wind Speed Gust Speed Precip Events Conditions
12:15 AM 55.4 °F - 41.0 °F 58% 29.86 in 10.0 mi SSW 11.5 mph - N/A   Clear
12:35 AM 53.6 °F - 41.0 °F 62% 29.85 in 10.0 mi SSW 12.7 mph - N/A   Clear
12:55 AM 55.4 °F - 42.8 °F 63% 29.85 in 10.0 mi SSW 13.8 mph - N/A   Clear
1:15 AM 53.6 °F - 42.8 °F 67% 29.85 in 10.0 mi SSW 12.7 mph - N/A   Clear
1:55 AM 53.6 °F - 42.8 °F 67% 29.84 in 10.0 mi SSW 12.7 mph - N/A   Clear
2:15 AM 51.8 °F - 42.8 °F 71% 29.84 in 10.0 mi SSW 13.8 mph - N/A   Clear
2:35 AM 51.8 °F - 42.8 °F 71% 29.84 in 10.0 mi SSW 12.7 mph - N/A   Clear
2:55 AM 51.8 °F - 42.8 °F 71% 29.84 in 10.0 mi SSW 10.4 mph - N/A   Clear
3:15 AM 51.8 °F - 44.6 °F 76% 29.85 in 10.0 mi WSW 8.1 mph - N/A   Clear
3:35 AM 51.8 °F - 44.6 °F 76% 29.85 in 10.0 mi SW 9.2 mph - N/A   Clear
3:55 AM 51.8 °F - 44.6 °F 76% 29.84 in 10.0 mi SW 12.7 mph - N/A   Clear
4:55 AM 51.8 °F - 42.8 °F 71% 29.86 in 10.0 mi SW 12.7 mph - N/A   Clear
5:55 AM 50.0 °F - 41.0 °F 71% 29.91 in 10.0 mi North 19.6 mph 27.6 mph N/A   Clear
6:35 AM 42.8 °F 34.0 °F 35.6 °F 76% 29.95 in 10.0 mi North 20.7 mph 25.3 mph N/A   Clear
6:55 AM 42.8 °F 33.3 °F 35.6 °F 76% 29.97 in 10.0 mi North 24.2 mph 31.1 mph N/A   Clear
7:15 AM 41.0 °F 30.7 °F 33.8 °F 76% 29.98 in 10.0 mi North 25.3 mph 28.8 mph N/A   Clear
7:35 AM 41.0 °F 31.9 °F 33.8 °F 76% 30.00 in 10.0 mi North 19.6 mph 27.6 mph N/A   Clear
7:55 AM 41.0 °F 31.4 °F 33.8 °F 76% 30.00 in 10.0 mi North 21.9 mph 27.6 mph N/A   Clear
8:15 AM 39.2 °F 29.8 °F 33.8 °F 81% 30.02 in 10.0 mi North 18.4 mph 24.2 mph N/A   Clear
8:35 AM 41.0 °F 31.9 °F 33.8 °F 76% 30.02 in 10.0 mi North 19.6 mph 26.5 mph N/A   Clear
8:55 AM 41.0 °F 30.5 °F 33.8 °F 76% 30.04 in 10.0 mi North 26.5 mph 32.2 mph N/A   Mostly Cloudy
9:15 AM 42.8 °F 32.1 °F 33.8 °F 70% 30.06 in 10.0 mi North 31.1 mph 34.5 mph N/A   Overcast
9:35 AM 41.0 °F 29.1 °F 32.0 °F 70% 30.09 in 10.0 mi North 34.5 mph 41.4 mph N/A   Overcast
9:55 AM 41.0 °F 29.5 °F 32.0 °F 70% 30.11 in 10.0 mi North 32.2 mph 41.4 mph N/A   Overcast
10:15 AM 41.0 °F 29.7 °F 32.0 °F 70% 30.13 in 10.0 mi North 31.1 mph 39.1 mph N/A   Overcast
10:35 AM 41.0 °F 28.8 °F 32.0 °F 70% 30.14 in 10.0 mi North 36.8 mph 43.7 mph N/A   Overcast
10:55 AM 41.0 °F 29.5 °F 32.0 °F 70% 30.15 in 10.0 mi North 32.2 mph 41.4 mph N/A   Overcast
11:15 AM 41.0 °F 29.1 °F 32.0 °F 70% 30.17 in 10.0 mi North 34.5 mph 41.4 mph N/A   Overcast
11:35 AM 41.0 °F 29.1 °F 32.0 °F 70% 30.18 in 10.0 mi North 34.5 mph 39.1 mph N/A   Overcast
11:55 AM 41.0 °F 29.8 °F 32.0 °F 70% 30.20 in 10.0 mi North 29.9 mph 39.1 mph N/A   Overcast
12:15 PM 41.0 °F 29.5 °F 32.0 °F 70% 30.22 in 10.0 mi North 32.2 mph 40.3 mph N/A   Overcast
12:35 PM 41.0 °F 29.1 °F 30.2 °F 65% 30.23 in 10.0 mi North 34.5 mph 42.6 mph N/A   Overcast
12:55 PM 41.0 °F 30.2 °F 30.2 °F 65% 30.24 in 10.0 mi North 27.6 mph 42.6 mph N/A   Overcast
1:15 PM 41.0 °F 29.3 °F 30.2 °F 65% 30.24 in 10.0 mi North 33.4 mph 39.1 mph N/A   Overcast
1:35 PM 41.0 °F 29.7 °F 30.2 °F 65% 30.25 in 10.0 mi North 31.1 mph 39.1 mph N/A   Overcast
1:55 PM 41.0 °F 29.1 °F 28.4 °F 61% 30.26 in 10.0 mi North 34.5 mph 43.7 mph N/A   Overcast
2:15 PM 42.8 °F 31.4 °F 28.4 °F 57% 30.26 in 10.0 mi North 35.7 mph 46.0 mph N/A   Scattered Clouds
2:35 PM 42.8 °F 31.3 °F 28.4 °F 57% 30.28 in 10.0 mi North 36.8 mph 43.7 mph N/A   Mostly Cloudy
2:55 PM 42.8 °F 31.4 °F 28.4 °F 57% 30.28 in 10.0 mi North 35.7 mph 42.6 mph N/A   Overcast
3:15 PM 41.0 °F 29.5 °F 28.4 °F 61% 30.30 in 10.0 mi North 32.2 mph 39.1 mph N/A   Overcast
3:35 PM 41.0 °F 29.1 °F 28.4 °F 61% 30.31 in 10.0 mi North 34.5 mph 40.3 mph N/A   Overcast
3:55 PM 41.0 °F 29.0 °F 28.4 °F 61% 30.32 in 10.0 mi North 35.7 mph 42.6 mph N/A   Overcast
4:15 PM 42.8 °F 31.1 °F 28.4 °F 57% 30.32 in 10.0 mi North 38.0 mph 46.0 mph N/A   Mostly Cloudy
4:35 PM 42.8 °F 31.3 °F 28.4 °F 57% 30.33 in 10.0 mi North 36.8 mph 46.0 mph N/A   Scattered Clouds
4:55 PM 41.0 °F 29.7 °F 28.4 °F 61% 30.35 in 10.0 mi North 31.1 mph 42.6 mph N/A   Scattered Clouds
5:15 PM 41.0 °F 30.2 °F 28.4 °F 61% 30.36 in 10.0 mi North 27.6 mph 34.5 mph N/A   Mostly Cloudy
5:35 PM 41.0 °F 29.8 °F 26.6 °F 57% 30.38 in 10.0 mi North 29.9 mph 40.3 mph N/A   Overcast
5:55 PM 41.0 °F 31.1 °F 28.4 °F 61% 30.39 in 10.0 mi North 23.0 mph 34.5 mph N/A   Overcast
6:15 PM 41.0 °F 30.7 °F 26.6 °F 57% 30.40 in 10.0 mi North 25.3 mph 35.7 mph N/A   Overcast
6:35 PM 39.2 °F 27.8 °F 28.4 °F 65% 30.41 in 10.0 mi NNE 27.6 mph 33.4 mph N/A   Overcast
6:55 PM 37.4 °F 26.6 °F 26.6 °F 65% 30.42 in 10.0 mi North 21.9 mph 34.5 mph N/A   Mostly Cloudy
7:15 PM 37.4 °F 27.2 °F 26.6 °F 65% 30.43 in 10.0 mi NNE 19.6 mph 25.3 mph N/A   Mostly Cloudy
7:35 PM 37.4 °F 26.4 °F 28.4 °F 70% 30.42 in 10.0 mi NNE 23.0 mph 29.9 mph N/A   Mostly Cloudy
7:55 PM 35.6 °F 24.2 °F 28.4 °F 75% 30.42 in 10.0 mi North 21.9 mph 31.1 mph N/A   Scattered Clouds
8:15 PM 35.6 °F 25.5 °F 28.4 °F 75% 30.42 in 10.0 mi North 17.3 mph - N/A   Clear
8:35 PM 35.6 °F 25.5 °F 28.4 °F 75% 30.43 in 10.0 mi North 17.3 mph - N/A   Clear
8:55 PM 33.8 °F 23.2 °F 28.4 °F 81% 30.42 in 10.0 mi North 17.3 mph 21.9 mph N/A   Clear
9:15 PM 33.8 °F 24.3 °F 28.4 °F 81% 30.44 in 10.0 mi North 13.8 mph - N/A   Clear
9:35 PM 32.0 °F 23.0 °F 28.4 °F 87% 30.44 in 10.0 mi North 11.5 mph - N/A   Clear
9:55 PM 32.0 °F 24.8 °F 28.4 °F 87% 30.44 in 10.0 mi North 8.1 mph - N/A   Clear
10:15 PM 32.0 °F 25.6 °F 28.4 °F 87% 30.48 in 10.0 mi WNW 6.9 mph - N/A   Clear
10:35 PM 32.0 °F 24.2 °F 28.4 °F 87% 30.49 in 10.0 mi NW 9.2 mph - N/A   Clear
10:55 PM 32.0 °F 24.2 °F 26.6 °F 80% 30.49 in 10.0 mi NW 9.2 mph - N/A   Clear
11:15 PM 32.0 °F 24.8 °F 26.6 °F 80% 30.50 in 10.0 mi WNW 8.1 mph - N/A   Clear
11:35 PM 32.0 °F 24.8 °F 26.6 °F 80% 30.49 in 10.0 mi NW 8.1 mph - N/A   Clear
11:55 PM 30.2 °F 23.4 °F 26.6 °F 86% 30.49 in 10.0 mi NNW 6.9 mph - N/A   Clear